Regional Weather Roundup
Issued by NWS New Orleans/Baton Rouge, LA

Home | Current Version | Previous Version | Text Only | Print | Product List | Glossary Off
Versions: 1 2 3 4 5 6 7 8 9 10 11 12 13 14 15 16 17 18 19 20 21 22 23 24 25 26 27 28 29 30 31 32 33 34 35 36 37 38 39 40 41 42 43 44 45 46 47 48 49 50

540
ASUS44 KLIX 011111
RWRLIX
NEW ORLEANS REGIONAL WEATHER ROUNDUP
NATIONAL WEATHER SERVICE NEW ORLEANS LA
600 AM CDT WED APR 01 2015

NOTE: "FAIR" INDICATES FEW OR NO CLOUDS BELOW 12,000 FEET WITH NO
      SIGNIFICANT WEATHER AND/OR OBSTRUCTIONS TO VISIBILITY.
      SKY/WX - SKY CONDITION AND SIGNIFICANT WEATHER.
      TMP - AIR TEMPERATURE.     DP    - DEWPOINT TEMPERATURE.
      RH  - RELATIVE HUMIDITY.   PRES  - PRESSURE.
      HI  - HEAT INDEX.          WCI   - WIND CHILL INDEX.

*  THESE STATIONS ARE NOT NWS OR FAA STATIONS AND ARE NOT UNDER
   NWS QUALITY CONTROL.

LAZ038-040-048-061>063-065>067-069-011200-
SOUTHEAST LOUISIANA

CITY           SKY/WX    TMP DP  RH WIND       PRES   REMARKS
N.O. AUDUBON     N/A     64  64 100 MISG        N/A
N.O. INTL ARPT MOCLDY    64  61  90 S5        30.03S
N.O. LAKEFRONT PTCLDY    67  62  84 S3        30.04R
SLIDELL        MOCLDY    57  56  96 CALM      30.03R FOG
BATON ROUGE    PTCLDY    60  59  96 NE3       30.02R FOG
BOOTHVILLE     CLOUDY    67  65  93 CALM      30.05R
BELLE CHASSE   MOCLDY    57  56  96 CALM      30.04R FOG
BOGALUSA*      FOG       60  57  91 CALM      30.05R VSB 1
GALLIANO*      MOSUNNY   56  56  99 CALM      30.04S FOG
NEW ROADS*     FOG       63  62  97 CALM      30.02S VSB<1/4
GONZALES*      FOG       63  63 100 CALM      30.03R VSB 3/4
HAMMOND*       FOG       59  57  94 CALM      30.05S VSB 1/2
HOUMA*         FOG       59  59 100 CALM      30.03S VSB 3/4
PORT FOURCHON* CLOUDY    72  66  83 CALM      30.07S

$$

MSZ070-080>082-011200-
SOUTHERN MISSISSIPPI

CITY           SKY/WX    TMP DP  RH WIND       PRES   REMARKS
MCCOMB         CLOUDY    63  63 100 CALM      30.04R FOG
GULFPORT       PTCLDY    61  59  93 N3        30.04R
BILOXI         PTCLDY    65  64  95 NW2       30.04R
PASCAGOULA     FOG       58  58 100 CALM      30.06R VSB 1/4

$$

COASTAL OBSERVATIONS
LAKE AND NEARSHORE STATIONS

STATION/POSITION TIME  TEMP    WIND        PRES    WAVE
                       AIR SEA DIR/SP/G            HT/PER
                 (UTC) (F)     (DEG/KT/KT) (MB)    (FT/S)
PASCAGOULA       1000   69     240/  9/ 11 1016.1
WAVELAND YACHT   1000   65 69              1016.6
GRAND ISLE       1000   69 72  220/  1/  2 1016.6
SOUTHWEST PASS   1000   64 55  160/  5/  5 1017.2
NEW CANAL        1000   67     200/  2/  4 1017.3
SHELL BEACH      1000   67 71  190/  2/  3 1016.9

OFFSHORE STATIONS

STATION/POSITION TIME  TEMP    WIND        PRES    WAVE
                       AIR SEA DIR/SP/G            HT/PER
                 (UTC) (F)     (DEG/KT/KT) (MB)    (FT/S)
64 S DAUPHIN ISL 1050   71 72  250/  4/  6 1018.1    2/ 8

$$




USA.gov is the U.S. government's official web portal to all federal, state and local government web resources and services.